Seward, AK

9:11 PM AKDT on April 28, 2017 (GMT -0800)
Seward

Weather History for PAWD - November, 2013

Change the Weather History Date:

Saturday, November 9, 2013

  Actual Average Record
Temperature  
Mean Temperature 38 °F -  
Max Temperature 43 °F 37 °F 50 °F (1997)
Min Temperature 32 °F 27 °F 4 °F (1977)
Degree Days  
Heating Degree Days 28    
Moisture  
Dew Point 28 °F    
Average Humidity 70    
Maximum Humidity 89    
Minimum Humidity 54    
Precipitation  
Precipitation 0.03 in - - ()
Sea Level Pressure  
Sea Level Pressure 30.17 in    
Wind  
Wind Speed 9 mph (NNE)    
Max Wind Speed 20 mph    
Max Gust Speed 26 mph    
Visibility 10 miles    
Events Rain    
Averages and records for this station are not official NWS values.
T = Trace of Precipitation, MM = Missing Value Source: NWS Daily Summary

Daily Weather History Graph

Daily Weather History Graph

Search for Another Location

Airport or City:

Trip Planner

Search our weather history database for the weather conditions in past years. The results will help you decide how hot, cold, wet, or windy it might be!

Date:

Astronomy

Nov. 09, 2013 Rise Set
Actual Time 8:42 AM AKST 4:39 PM AKST
Civil Twilight 7:54 AM AKST 5:27 PM AKST
Nautical Twilight 7:03 AM AKST 6:18 PM AKST
Astronomical Twilight 6:14 AM AKST 7:07 PM AKST
Moon 2:05 PM AKST (11/9) 11:48 PM AKST (11/9)
Length of Visible Light 9h 32m
Length of Day
7h 57m
Waxing Crescent, 46% of the Moon is Illuminated
Nov 9
Waxing Crescent
Nov 9
First Quarter
Nov 17
Full
Nov 25
Last Quarter
Dec 2
New

Hourly Weather History & Observations

Time (AKST) Temp. Windchill Dew Point Humidity Pressure Visibility Wind Dir Wind Speed Gust Speed Precip Events Conditions
12:53 AM 35.1 °F 24.1 °F 19.9 °F 54% 30.16 in 10.0 mi North 19.6 mph 26.5 mph N/A   Clear
1:53 AM 33.1 °F 23.0 °F 19.9 °F 59% 30.18 in 10.0 mi NNE 15.0 mph 19.6 mph N/A   Clear
3:53 AM 32.0 °F 22.1 °F 21.0 °F 64% 30.18 in 10.0 mi North 13.8 mph - N/A   Clear
4:53 AM 33.1 °F 23.4 °F 19.9 °F 59% 30.17 in 10.0 mi NNE 13.8 mph 18.4 mph N/A   Clear
5:53 AM 34.0 °F 28.0 °F 19.9 °F 56% 30.17 in 10.0 mi North 6.9 mph - N/A   Clear
6:53 AM 32.0 °F 23.0 °F 21.0 °F 64% 30.17 in 10.0 mi NNW 11.5 mph - N/A   Clear
7:53 AM 32.0 °F 22.5 °F 21.9 °F 66% 30.17 in 10.0 mi North 12.7 mph - N/A   Clear
8:53 AM 33.1 °F 25.5 °F 21.9 °F 64% 30.20 in 10.0 mi NNW 9.2 mph - N/A   Partly Cloudy
9:53 AM 33.1 °F 28.7 °F 23.0 °F 66% 30.20 in 10.0 mi North 4.6 mph - N/A   Clear
10:53 AM 34.0 °F - 23.0 °F 64% 30.20 in 10.0 mi Calm Calm - N/A   Overcast
11:53 AM 35.1 °F 32.2 °F 24.1 °F 64% 30.20 in 10.0 mi NNW 3.5 mph - N/A   Mostly Cloudy
12:53 PM 37.0 °F 34.5 °F 24.1 °F 59% 30.20 in 10.0 mi North 3.5 mph - N/A   Partly Cloudy
1:53 PM 39.0 °F 36.8 °F 24.1 °F 55% 30.19 in 10.0 mi NNE 3.5 mph - N/A   Clear
2:53 PM 39.0 °F - 25.0 °F 57% 30.19 in 10.0 mi Calm Calm - N/A   Mostly Cloudy
3:53 PM 37.9 °F - 26.1 °F 62% 30.19 in 10.0 mi Calm Calm - N/A   Overcast
4:53 PM 35.1 °F - 27.0 °F 72% 30.18 in 10.0 mi Calm Calm - N/A   Overcast
5:53 PM 35.1 °F - 30.0 °F 82% 30.18 in 10.0 mi Calm Calm - N/A   Overcast
6:17 PM 35.6 °F - 30.2 °F 81% 30.18 in 10.0 mi Calm Calm - N/A   Overcast
6:53 PM 39.9 °F - 32.0 °F 73% 30.17 in 10.0 mi Calm Calm - N/A   Overcast
7:53 PM 43.0 °F 40.3 °F 36.0 °F 76% 30.15 in 10.0 mi Variable 4.6 mph - 0.00 in   Overcast
8:53 PM 43.0 °F 39.5 °F 36.0 °F 76% 30.15 in 10.0 mi South 5.8 mph - N/A   Overcast
9:46 PM 42.8 °F 40.1 °F 37.4 °F 81% 30.14 in 10.0 mi South 4.6 mph - 0.00 in Rain Light Rain
9:53 PM 42.1 °F 37.7 °F 37.9 °F 85% 30.13 in 10.0 mi South 6.9 mph - 0.00 in Rain Light Rain
10:00 PM 42.8 °F 39.3 °F 37.4 °F 81% 30.14 in 10.0 mi South 5.8 mph - 0.00 in   Overcast
10:25 PM 42.8 °F 39.3 °F 37.4 °F 81% 30.12 in 10.0 mi South 5.8 mph - 0.01 in Rain Light Rain
10:36 PM 42.8 °F 41.1 °F 37.4 °F 81% 30.12 in 9.0 mi South 3.5 mph - 0.02 in Rain Light Rain
10:53 PM 43.0 °F 39.5 °F 37.9 °F 82% 30.12 in 10.0 mi South 5.8 mph - 0.02 in Rain Light Rain
11:53 PM 42.1 °F 37.1 °F 39.0 °F 89% 30.11 in 8.0 mi SSE 8.1 mph - 0.01 in Rain Light Rain